sat.trackr.live / text

‹ back to catalog

STARLINK-5273

NORAD 54162 · 2022-141F

PAYLOAD ACTIVE UNKNOWN

§ Identity

Operator
Country
US
Launch date
2022-10-28
Launch site
AFWTR
Launch vehicle
Mass (kg)
RCS (m²)

Purposes: comms

External: N2YO · Heavens-Above · Gunter

§ Orbital elements

Epoch: 2026-09-20T22:00:03.000096Z

Period
93.91 min
Inclination
53.1606°
Eccentricity
0.0001551
Mean motion
15.33459567 rev/d
Perigee alt
464.4 km
Apogee alt
466.6 km
Semi-major
6,843.6 km
B*
1.3924e-3
RAAN
215.4481°
Arg perigee
106.6524°
Mean anomaly
223.5399°
Rev number
570

§ Raw data

STARLINK-52731 54162U 22141F   26263.91670139  .00045568  00000+0  13924-2 0  99912 54162  53.1606 215.4481 0001551 106.6524 223.5399 15.33459567  5705

JSON: /api/v1/satellites/54162 · /tle

For live sub-satellite position, see the globe view (requires WebGL).

§ Visibility from observer

Set your observer location to see the next 7 days of passes ≥ 10°. The values pass through the URL so the page stays shareable.

No JS? Fill the form by hand. The geolocation button needs JavaScript.